sat.trackr.live / text

‹ back to catalog

STARLINK-11616 [DTC]

NORAD 63137 · 2025-043F

PAYLOAD ACTIVE UNKNOWN

§ Identity

Operator
Country
US
Launch date
2025-03-03
Launch site
AFETR
Launch vehicle
Mass (kg)
RCS (m²)

Purposes: comms

External: N2YO · Heavens-Above · Gunter

§ Orbital elements

Epoch: 2026-09-20T17:58:56.845920Z

Period
91.67 min
Inclination
43.0005°
Eccentricity
0.0002433
Mean motion
15.70851164 rev/d
Perigee alt
354.8 km
Apogee alt
358.1 km
Semi-major
6,734.6 km
B*
1.2406e-3
RAAN
154.6295°
Arg perigee
233.8364°
Mean anomaly
126.2279°
Rev number
9,015

§ Raw data

STARLINK-11616 [DTC]1 63137U 25043F   26263.74926905  .00161966  00000+0  12406-2 0  99982 63137  43.0005 154.6295 0002433 233.8364 126.2279 15.70851164 90159

JSON: /api/v1/satellites/63137 · /tle

For live sub-satellite position, see the globe view (requires WebGL).

§ Visibility from observer

Set your observer location to see the next 7 days of passes ≥ 10°. The values pass through the URL so the page stays shareable.

No JS? Fill the form by hand. The geolocation button needs JavaScript.